Weather History for Port Angeles, WA

Change the Weather History Date:

Tuesday, December 10, 2013

  Actual Average Record
Temperature  
Mean Temperature 37 °F -  
Max Temperature 41 °F 47 °F 60 °F (1956)
Min Temperature 33 °F 35 °F 22 °F (1972)
Degree Days  
Heating Degree Days 28    
Moisture  
Dew Point 31 °F    
Average Humidity 82    
Maximum Humidity 92    
Minimum Humidity 70    
Precipitation  
Precipitation 0.00 in - - ()
Sea Level Pressure  
Sea Level Pressure 30.44 in    
Wind  
Wind Speed 2 mph (SSW)    
Max Wind Speed 6 mph    
Max Gust Speed -    
Visibility 10 miles    
Events      
Averages and records for this station are not official NWS values.
T = Trace of Precipitation, MM = Missing Value Source: NWS Daily Summary

Daily Weather History Graph

Daily Weather History Graph

Search for Another Location

Airport:

Trip Planner

Search our weather history database for the weather conditions in past years. The results will help you decide how hot, cold, wet, or windy it might be!

Date:

Astronomy

Dec. 10, 2013 Rise Set
Actual Time 7:53 AM PST 4:20 PM PST
Civil Twilight 7:17 AM PST 4:56 PM PST
Nautical Twilight 6:37 AM PST 5:36 PM PST
Astronomical Twilight 5:59 AM PST 6:13 PM PST
Moon 12:48 PM PST (12/10) 12:51 AM PST (12/10)
Length of Visible Light 9h 39m
Length of Day
8h 26m
Waxing Gibbous, 63% of the Moon is Illuminated
Dec 10
Waxing Gibbous
Dec 17
Full
Dec 25
Last Quarter
Jan 1
New
Jan 7
First Quarter

Hourly Weather History & Observations

Time (PST) Temp. Windchill Dew Point Humidity Pressure Visibility Wind Dir Wind Speed Gust Speed Precip Events Conditions
12:53 AM 33.1 °F - 26.1 °F 75% 30.46 in 10.0 mi North - - N/A   Clear
1:53 AM 35.1 °F - 26.1 °F 70% 30.46 in 10.0 mi North - - N/A   Mostly Cloudy
2:53 AM 34.0 °F - 26.1 °F 73% 30.46 in 10.0 mi North - - N/A   Overcast
3:28 AM 33.1 °F - 27.0 °F 78% 30.45 in 10.0 mi North - - N/A   Overcast
3:53 AM 34.0 °F - 26.1 °F 73% 30.46 in 10.0 mi North - - N/A   Overcast
4:21 AM 33.1 °F - 27.0 °F 78% 30.45 in 10.0 mi North - - N/A   Overcast
4:36 AM 33.1 °F - 28.0 °F 82% 30.44 in 10.0 mi North - - N/A   Overcast
4:53 AM 33.1 °F - 28.0 °F 82% 30.45 in - North - - N/A   Overcast
5:53 AM 33.1 °F - 28.0 °F 82% 30.44 in 10.0 mi North - - N/A   Overcast
6:51 AM 33.8 °F - 28.4 °F 81% 30.43 in 10.0 mi North - - N/A   Overcast
6:53 AM 34.0 °F - 28.0 °F 79% 30.44 in 10.0 mi North - - N/A   Overcast
7:29 AM 34.0 °F - 28.9 °F 82% 30.42 in 10.0 mi North - - N/A   Overcast
7:53 AM 35.1 °F - 28.0 °F 76% 30.44 in 10.0 mi North - - N/A   Overcast
8:53 AM 34.0 °F - 30.0 °F 85% 30.45 in 10.0 mi North - - N/A   Overcast
9:07 AM 35.1 °F - 30.0 °F 82% 30.44 in 10.0 mi North - - N/A   Overcast
9:49 AM 37.4 °F - 30.2 °F 75% 30.45 in 10.0 mi North - - 0.00 in   Overcast
9:53 AM 37.0 °F - 30.9 °F 79% 30.46 in 10.0 mi North - - 0.00 in   Overcast
10:53 AM 39.9 °F - 32.0 °F 73% 30.46 in 10.0 mi North - - N/A   Overcast
11:53 AM 39.9 °F - 34.0 °F 79% 30.46 in 10.0 mi North - - N/A   Overcast
12:53 PM 41.0 °F - 34.0 °F 76% 30.46 in 10.0 mi North - - N/A   Overcast
1:53 PM 41.0 °F - 35.1 °F 79% 30.45 in 10.0 mi Calm Calm - N/A   Overcast
2:30 PM 41.0 °F 39.0 °F 35.1 °F 79% 30.43 in 10.0 mi East 3.5 mph - N/A   Overcast
2:53 PM 39.9 °F 35.8 °F 35.1 °F 83% 30.45 in 10.0 mi East 5.8 mph - N/A   Overcast
3:53 PM 39.0 °F 36.8 °F 35.1 °F 86% 30.44 in 10.0 mi East 3.5 mph - N/A   Overcast
4:24 PM 39.0 °F - 35.1 °F 86% 30.43 in 10.0 mi Calm Calm - N/A   Overcast
4:53 PM 37.9 °F - 34.0 °F 86% 30.44 in 10.0 mi Calm Calm - N/A   Overcast
5:53 PM 37.0 °F - 34.0 °F 89% 30.42 in 10.0 mi Calm Calm - N/A   Overcast
6:53 PM 36.0 °F - 33.1 °F 89% 30.43 in 10.0 mi Calm Calm - N/A   Overcast
7:01 PM 35.1 °F 32.2 °F 33.1 °F 92% 30.41 in 8.0 mi SW 3.5 mph - N/A   Overcast
7:53 PM 37.0 °F 32.4 °F 34.0 °F 89% 30.44 in 10.0 mi SW 5.8 mph - N/A   Overcast
8:53 PM 37.0 °F - 34.0 °F 89% 30.43 in 10.0 mi Calm Calm - N/A   Overcast
9:53 PM 37.0 °F - 33.1 °F 86% 30.43 in 10.0 mi Calm Calm - N/A   Overcast
10:15 PM 36.0 °F 33.3 °F 33.1 °F 89% 30.42 in 10.0 mi WSW 3.5 mph - N/A   Overcast
10:38 PM 36.0 °F 32.1 °F 33.1 °F 89% 30.41 in 10.0 mi WSW 4.6 mph - N/A   Overcast
10:53 PM 35.1 °F 31.0 °F 32.0 °F 89% 30.43 in 10.0 mi SW 4.6 mph - N/A   Overcast
11:53 PM 34.0 °F - 32.0 °F 92% 30.42 in 10.0 mi Calm Calm - N/A   Overcast